SCP
0 0 0 0 0 0 0 0 0 0 0 0 0 0 0 0 0 0 0 0 0 0 0 0 0 0 0 0 0 0 0 0 0 0 0 0 0 0 0 0 0 0 0 0 0
0 0 0 0 0 0 0 0 0 0 0 0 0 0 0 0 0 0 0 0 0 0 0 0 0 0 0 0 0 0 0 0 0 0 0 0 0 0 0 0 0 0 0 0 0
0 0 0 0 0 0 0 0 0 0 0 0 0 0 0 0 0 0 0 0 0 0 0 0 0 0 0 0 0 0 0 0 0 0 0 0 0 0 0 0 0 0 0 0 0
0 0 0 0 0 0 0 0 0 0 0 0 0 0 0 0 0 0 0 0 0 0 0 0 0 0 0 0 0 0 0 0 0 0 0 0 0 0 0 0 0 0 0 0 0
0 0 0 0 0 0 0 0 0 0 0 0 0 0 0 0 0 0 0 -0 0 0 0 0 0 0 0 0 0 0 0 0 0 0 0 0 0 0 0 0 0 0 0 0 0
0 0 0 0 0 0 0 0 0 0 0 0 0 0 0 0 0 0 0 0 0 0 0 0 0 0 0 0 0 0 0 0 0 0 0 0 0 0 0 0 0 0 0 0 0
0 0 0 0 0 0 0 0 0 0 0 0 0 0 0 0 0 0 0 0 0 0 0 0 0 0 0 0 0 0 0 0 0 0 0 0 0 0 0 0 0 0 0 0 0
0 0 0 0 0 0 0 0 0 0 0 -0 0 0 0 0 0 0 0 0 0 0 0 0 0 0 0 0 0 0 0 0 0 0 -0 0 0 0 0 0 0 0 0 0 0
0 0 0 0 0 0 0 0 -0 -0 -0 -0 0 -0 0 -0 0 0 0 0 0 0 0 0 0 0 0 0 0 0 0 0 0 0 0 0 0 -0 0 0 0 0 0 0 0
0 0 0 0 0 0 0 0 -0 -0 -0 -0 -0 -0 -0 0 -0 0 0 0 0 0 0 0 0 0 0 0 0 0 0 0 0 0 0 0 0 0 0 0 0 0 0 0 0
0 0 0 0 0 0 0 0 0 0 -0 0 0 -0 0 0 0 -0 -0 0 0 0 0 0 0 0 0 0 0 0 0 0 0 0 0 0 0 0 0 0 0 0 0 0 0
0 0 0 0 0 -0 -0 0 0 0 0 0 0 0 -0 -0 0 0 0 0 0 0 0 0 0 0 0 0 0 -0 0 0 0 0 0 0 0 0 0 0 0 0 0 0 0
0 0 -0 -0 -0 -0 -0 0 0 -0 0 -0 -0 -0 0 -0 0 0 -0 -0 0 0 0 0 0 0 0 0 0 0 0 0 0 0 0 0 0 0 0 0 0 0 0 0 0
0 0 -0 -0 -0 -0 0 0 0 0 -0 -0 -0 -0 -0 0 0 0 0 -0 0 0 0 0 0 0 0 0 0 0 0 0 0 0 0 0 0 0 0 0 0 0 0 0 0
0 0 -0 0 0 0 0 0 0 0 -0 0 0 0 -0 -0 -0 -0 -0 -0 0 0 0 0 0 0 0 0 0 0 0 0 0 0 0 0 0 0 0 0 0 0 0 0 0
0 0 -0 0 0 0 0 0 0 -0 0 0 0 -0 -0 -0 -0 -0 0 0 0 -0 0 0 0 0 0 0 0 0 0 0 0 0 0 0 0 -0 -0 0 0 0 0 0 0
0 0 -0 0 0 0 0 0 0 -0 -0 0 -0 -0 -0 -0 -0 0 0 0 -0 0 0 0 0 0 0 0 0 0 0 0 0 0 0 0 0 -0 0 0 0 0 0 0 0
0 -0 0 0 0 0 0 0 -0 -0 -0 -0 0 0 0 0 -0 0 0 0 0 -0 0 0 0 0 0 0 0 0 0 0 0 0 0 0 0 0 -0 -0 0 0 0 0 0
0 0 0 0 0 0 0 0 -0 -0 -0 -0 -0 -0 -0 -0 -0 -0 0 0 0 0 0 0 0 0 -0 0 0 0 0 0 0 0 0 0 0 0 0 -0 0 0 0 0 0
0 0 0 0 0 0 0 0 -0 0 0 -0 -0 -0 -0 -0 0 0 0 0 0 0 -0 0 0 0 0 0 0 0 0 0 0 0 0 0 0 0 -0 0 0 0 -0 -0 -0
0 0 0 0 0 0 0 0 0 -0 -0 -0 0 0 -0 -0 -0 0 0 0 -0 0 0 0 0 0 0 0 0 0 0 0 0 0 0 0 0 0 0 0 0 0 0 -0 -0
0 0 0 0 0 0 0 0 -0 -0 -0 -0 0 0 -0 -0 -0 -0 0 0 0 0 0 0 0 0 0 0 0 0 0 0 0 0 0 0 0 0 0 0 -0 0 0 -0 -0
0 0 0 0 0 0 0 0 -0 0 -0 -0 0 -0 -0 -0 -0 0 0 -0 -0 0 0 0 -0 0 0 0 0 0 0 0 0 0 0 0 0 0 0 0 0 0 0 -0 -0
0 0 0 0 0 0 0 0 0 0 0 -0 -0 -0 -0 0 -0 0 -0 -0 0 0 -0 0 0 0 0 0 0 0 0 0 0 0 0 0 0 0 0 0 0 0 0 -0 -0
0 0 0 0 0 0 0 0 0 -0 -0 -0 -0 -0 -0 0 -0 0 -0 0 -0 -0 -0 0 0 0 -0 0 0 0 0 0 0 0 0 0 0 -0 0 0 0 0 0 -0 -0
0 0 0 0 0 0 0 0 0 0 0 -0 -0 -0 -0 -0 -0 -0 -0 -0 -0 -0 0 0 0 0 -0 -0 0 0 0 0 0 0 -0 0 0 0 0 0 0 0 0 -0 -0
0 0 0 0 0 0 0 0 0 0 0 -0 0 -0 -0 0 0 -0 0 0 -0 -0 0 0 -0 -0 -0 -0 0 0 0 0 0 0 -0 0 0 0 0 0 0 0 0 0 0
Wind_Speed_500mb
28 30 32 33 33 33 34 35 35 34 33 33 37 41 46 52 54 47 54 53 24 38 36 24 19 26 37 44 45 46 30 33 47 47 42 51 38 46 28 39 25 43 34 35 32
31 32 32 33 36 38 38 36 36 37 35 35 33 30 30 39 47 62 65 57 49 43 39 30 35 35 47 42 56 45 33 53 46 41 41 48 48 44 43 36 44 38 59 44 34
33 34 35 36 37 39 40 41 40 38 37 36 34 30 27 23 34 38 52 54 60 56 52 37 42 47 54 59 58 59 51 49 59 64 65 63 61 53 54 48 48 51 45 60 38
35 35 34 35 37 39 41 42 43 44 42 40 39 35 26 12 14 4 19 12 33 59 55 46 47 62 56 53 68 57 73 71 71 69 68 57 70 65 67 69 69 68 57 58 41
36 36 37 38 38 38 39 41 42 43 44 46 45 40 38 24 40 29 45 26 13 18 34 50 62 66 58 59 68 60 59 76 80 80 76 79 67 64 72 89 70 71 68 59 59
39 41 43 45 45 43 40 37 38 39 41 43 46 46 30 49 23 27 33 31 29 30 39 47 60 65 66 68 59 78 74 77 83 82 80 66 64 73 79 80 80 72 65 69 70
40 43 47 50 51 50 48 45 41 40 41 41 41 43 44 61 34 32 30 32 32 38 46 43 43 53 73 62 86 83 66 64 64 76 68 73 65 61 76 76 68 75 78 73 70
38 40 40 40 41 42 46 49 47 46 43 39 38 31 39 48 44 46 44 50 48 48 52 48 47 56 57 69 76 65 65 57 61 60 79 61 61 61 78 79 65 69 71 68 79
47 48 50 52 55 56 52 44 32 31 37 29 24 19 33 12 23 30 28 45 45 46 49 46 51 54 43 41 44 53 46 67 75 59 65 65 59 66 74 76 69 72 70 63 68
50 52 53 53 53 56 54 48 31 30 23 16 20 21 35 28 23 15 9 8 20 35 45 54 46 38 36 37 49 45 60 69 59 53 57 58 56 56 70 73 67 71 53 57 61
51 54 55 55 56 46 37 39 33 23 14 40 38 38 57 24 16 25 25 28 27 34 36 51 35 51 83 56 58 52 61 66 62 56 58 51 53 53 47 53 47 52 67 56 66
53 57 58 53 49 22 27 30 34 31 49 48 63 76 71 64 66 55 40 42 35 35 36 36 57 72 45 60 61 65 64 61 55 52 47 43 47 43 42 43 50 56 48 50 57
57 60 60 52 35 20 30 24 36 37 44 77 92 74 66 56 63 55 48 53 46 44 43 45 69 50 57 62 60 63 60 52 59 49 52 43 49 46 47 50 60 63 60 69 75
56 60 51 45 19 26 23 37 35 34 19 25 24 28 34 31 29 41 42 49 46 48 45 50 50 58 60 71 61 58 55 56 51 43 35 36 36 42 33 43 39 43 47 58 56
56 52 35 25 26 25 33 38 31 21 11 9 15 8 9 31 7 14 29 32 32 38 42 63 42 55 65 71 57 67 50 50 50 45 41 47 29 35 33 36 38 40 59 65 68
55 37 26 24 22 28 39 34 25 8 11 24 17 25 21 29 47 29 23 22 23 31 39 57 61 57 56 55 63 51 48 55 49 36 35 46 40 35 35 37 43 37 16 28 31
47 23 24 21 24 36 33 24 9 10 32 16 17 15 27 26 28 24 32 30 26 20 36 45 49 59 56 56 57 62 42 30 32 31 41 36 36 34 36 38 40 28 19 21 30
33 16 21 16 25 26 26 7 8 24 26 39 33 35 30 34 37 32 40 33 23 34 26 39 32 52 43 63 49 59 50 31 49 27 37 44 42 42 39 46 44 10 21 12 21
28 19 11 15 25 19 15 8 8 19 27 36 39 32 28 25 37 33 27 27 12 17 20 22 33 46 57 56 56 54 54 51 45 41 29 31 32 51 38 25 28 19 26 34 31
28 20 15 18 21 16 9 20 23 28 29 34 31 1 29 43 20 13 24 17 17 9 22 15 32 42 50 53 65 56 45 49 38 44 36 38 32 8 22 15 8 20 20 45 39
21 10 7 13 16 16 10 27 43 50 43 28 29 29 27 31 34 27 22 14 32 12 17 29 28 49 45 46 56 47 49 50 34 33 28 26 19 6 3 6 13 25 39 50 48
17 7 11 7 9 11 18 41 53 22 34 34 15 23 17 33 39 36 19 21 27 30 21 22 10 28 50 48 58 58 50 48 31 45 35 27 22 22 9 12 10 27 50 50 53
20 24 6 7 7 16 35 33 41 33 38 36 25 31 31 32 21 19 19 19 4 6 6 16 11 19 28 29 37 55 52 47 40 23 38 31 20 21 19 13 10 26 48 49 54
18 13 13 25 13 24 32 32 37 35 29 40 38 32 27 29 36 14 17 10 11 8 4 12 12 31 22 10 24 31 55 57 50 35 30 37 18 19 21 17 15 44 48 53 53
10 15 26 14 24 23 31 32 36 34 33 45 18 36 33 34 34 29 16 27 12 8 6 4 18 38 40 34 41 56 58 64 59 48 39 34 34 27 28 25 7 41 47 49 52
18 19 25 42 33 26 24 30 35 33 37 29 28 40 32 34 37 36 38 34 15 13 9 15 10 31 27 23 40 57 58 60 55 56 50 35 40 21 36 45 19 32 44 45 46
19 22 9 25 29 23 21 31 42 42 21 46 29 35 34 34 46 62 56 49 40 38 29 23 10 10 7 21 37 40 47 49 50 50 49 28 13 36 37 31 19 12 41 39 41
Wind_Direction_500mb
335 332 332 331 331 328 327 326 327 327 321 314 303 293 286 286 282 274 268 261 262 249 239 242 249 225 228 231 230 235 252 249 250 258 269 277 286 293 293 309 282 294 298 293 289
332 330 327 327 326 325 325 322 320 320 321 320 321 321 309 293 284 276 266 260 248 237 234 228 224 222 224 232 231 228 243 237 244 256 269 276 276 269 287 293 283 272 296 277 287
332 328 325 323 321 320 320 320 318 316 316 316 316 317 318 321 309 274 249 248 241 236 233 235 243 232 231 237 231 229 238 248 258 264 263 268 281 288 286 282 298 299 293 287 294
341 335 330 323 319 316 314 313 314 315 315 311 311 309 310 306 257 129 16 325 241 233 232 240 245 248 236 233 236 241 239 244 256 261 265 270 278 281 289 292 291 290 272 275 291
348 343 338 334 329 323 317 313 310 308 308 308 305 306 312 257 243 277 292 306 291 234 229 233 233 235 241 235 242 237 244 249 252 256 258 265 270 278 280 282 288 285 280 280 286
347 342 338 334 330 327 323 317 311 305 301 299 300 303 293 267 266 265 260 256 250 244 241 234 235 234 248 243 241 250 248 252 258 259 262 267 274 275 277 282 283 283 275 273 271
341 339 337 334 330 328 325 320 315 308 299 292 289 289 272 256 262 248 262 258 253 249 248 247 248 232 244 251 254 256 256 260 256 258 263 268 264 263 269 271 278 283 281 275 276
345 339 336 333 330 326 321 317 315 310 299 291 282 277 265 283 264 262 262 260 257 254 251 248 254 272 268 254 260 251 257 260 254 254 257 260 265 265 266 273 269 273 278 274 272
348 344 342 340 339 333 326 315 302 298 304 296 276 226 271 293 257 258 259 255 248 249 247 245 241 253 262 250 249 248 247 248 251 245 262 258 265 266 259 258 258 261 257 261 275
346 342 339 339 339 336 326 324 322 283 282 265 251 236 257 264 259 195 250 286 242 246 250 239 230 235 237 234 226 222 238 243 259 256 258 256 253 264 254 256 258 255 266 264 266
344 340 336 335 337 339 343 358 354 304 229 260 282 222 290 273 265 250 259 267 257 251 241 225 217 222 220 220 243 240 240 246 251 252 254 254 259 258 272 273 272 263 246 261 265
346 341 337 334 338 337 341 323 325 310 297 280 267 264 260 269 271 263 258 257 248 251 233 230 224 227 232 227 234 242 255 259 266 268 269 279 281 278 268 273 279 281 287 286 288
342 337 333 331 336 354 324 328 327 314 293 279 259 257 258 248 247 252 241 241 242 249 239 228 239 231 235 234 237 235 237 247 258 270 273 281 276 270 270 272 267 268 265 266 261
342 338 338 338 345 320 330 329 323 326 289 286 225 233 231 243 266 247 243 232 235 240 245 246 243 241 233 234 229 243 234 244 250 255 260 259 273 255 262 264 262 268 267 260 262
344 343 351 0 0 341 325 326 322 325 276 78 48 90 204 203 208 260 205 217 243 253 229 242 246 237 237 241 228 245 244 250 248 251 260 254 259 268 268 270 268 262 256 251 246
345 346 360 0 326 331 325 316 314 252 243 15 6 352 339 322 306 261 196 226 252 241 242 255 254 249 248 242 249 242 241 250 257 258 250 244 248 264 265 272 274 273 301 302 281
347 347 3 360 333 327 333 329 280 273 322 343 311 322 313 304 283 275 273 218 220 254 249 248 244 255 251 252 231 241 229 232 231 233 245 247 249 263 268 276 275 278 303 278 58
349 345 341 328 330 334 340 312 293 342 314 352 349 333 317 317 293 284 276 265 253 236 237 276 253 223 237 238 234 226 231 223 222 223 244 244 246 254 249 249 254 249 267 145 121
347 349 312 326 332 339 330 286 328 297 347 338 334 353 340 329 314 308 285 258 268 1 293 313 279 273 217 241 238 228 227 236 244 232 255 254 231 234 243 251 250 216 230 138 136
338 312 277 316 328 331 296 287 301 348 331 329 342 327 310 329 308 256 308 343 278 237 228 283 289 285 279 210 242 242 218 226 221 236 235 232 253 185 179 205 275 174 195 129 135
330 249 290 324 298 308 297 316 327 333 324 318 333 314 335 327 325 331 287 279 329 268 309 295 263 272 286 261 211 225 233 219 235 230 238 252 230 140 52 120 220 173 146 137 140
302 287 184 344 241 294 306 327 314 312 317 310 343 301 290 286 300 296 31 11 333 334 311 318 310 260 265 263 214 230 225 220 219 207 236 265 263 112 105 168 225 85 121 139 141
307 307 294 300 342 331 310 327 325 348 331 324 318 313 318 321 314 325 320 166 278 302 7 348 233 260 252 262 249 229 225 230 237 220 215 233 237 152 151 207 162 134 130 138 139
307 313 356 337 321 311 323 316 322 327 326 325 313 312 320 312 303 224 286 309 238 310 194 294 254 253 248 244 334 271 233 229 222 213 221 223 142 161 146 142 183 122 139 144 152
287 345 6 311 327 317 302 303 320 341 337 329 306 331 324 320 312 312 259 284 250 253 162 237 271 270 270 274 296 289 240 227 215 204 225 231 209 160 132 120 109 125 143 148 149
330 345 335 299 320 311 325 315 329 328 325 317 320 310 308 311 314 314 308 306 313 267 218 204 276 291 265 286 286 290 289 222 212 193 220 233 212 170 104 77 117 143 149 157 148
328 319 276 301 307 328 309 324 313 319 312 304 335 318 311 308 308 304 290 286 277 266 268 283 286 267 257 232 283 284 250 232 208 188 212 211 163 90 85 84 58 44 146 150 154
Wind_Speed_850mb
28 30 32 33 33 33 34 35 35 34 33 33 37 41 46 52 54 47 54 53 24 38 36 24 19 26 37 44 45 46 30 33 47 47 42 51 38 46 28 39 25 43 34 35 32
31 32 32 33 36 38 38 36 36 37 35 35 33 30 30 39 47 62 65 57 49 43 39 30 35 35 47 42 56 45 33 53 46 41 41 48 48 44 43 36 44 38 59 44 34
33 34 35 36 37 39 40 41 40 38 37 36 34 30 27 23 34 38 52 54 60 56 52 37 42 47 54 59 58 59 51 49 59 64 65 63 61 53 54 48 48 51 45 60 38
35 35 34 35 37 39 41 42 43 44 42 40 39 35 26 12 14 4 19 12 33 59 55 46 47 62 56 53 68 57 73 71 71 69 68 57 70 65 67 69 69 68 57 58 41
36 36 37 38 38 38 39 41 42 43 44 46 45 40 38 24 40 29 45 26 13 18 34 50 62 66 58 59 68 60 59 76 80 80 76 79 67 64 72 89 70 71 68 59 59
39 41 43 45 45 43 40 37 38 39 41 43 46 46 30 49 23 27 33 31 29 30 39 47 60 65 66 68 59 78 74 77 83 82 80 66 64 73 79 80 80 72 65 69 70
40 43 47 50 51 50 48 45 41 40 41 41 41 43 44 61 34 32 30 32 32 38 46 43 43 53 73 62 86 83 66 64 64 76 68 73 65 61 76 76 68 75 78 73 70
38 40 40 40 41 42 46 49 47 46 43 39 38 31 39 48 44 46 44 50 48 48 52 48 47 56 57 69 76 65 65 57 61 60 79 61 61 61 78 79 65 69 71 68 79
47 48 50 52 55 56 52 44 32 31 37 29 24 19 33 12 23 30 28 45 45 46 49 46 51 54 43 41 44 53 46 67 75 59 65 65 59 66 74 76 69 72 70 63 68
50 52 53 53 53 56 54 48 31 30 23 16 20 21 35 28 23 15 9 8 20 35 45 54 46 38 36 37 49 45 60 69 59 53 57 58 56 56 70 73 67 71 53 57 61
51 54 55 55 56 46 37 39 33 23 14 40 38 38 57 24 16 25 25 28 27 34 36 51 35 51 83 56 58 52 61 66 62 56 58 51 53 53 47 53 47 52 67 56 66
53 57 58 53 49 22 27 30 34 31 49 48 63 76 71 64 66 55 40 42 35 35 36 36 57 72 45 60 61 65 64 61 55 52 47 43 47 43 42 43 50 56 48 50 57
57 60 60 52 35 20 30 24 36 37 44 77 92 74 66 56 63 55 48 53 46 44 43 45 69 50 57 62 60 63 60 52 59 49 52 43 49 46 47 50 60 63 60 69 75
56 60 51 45 19 26 23 37 35 34 19 25 24 28 34 31 29 41 42 49 46 48 45 50 50 58 60 71 61 58 55 56 51 43 35 36 36 42 33 43 39 43 47 58 56
56 52 35 25 26 25 33 38 31 21 11 9 15 8 9 31 7 14 29 32 32 38 42 63 42 55 65 71 57 67 50 50 50 45 41 47 29 35 33 36 38 40 59 65 68
55 37 26 24 22 28 39 34 25 8 11 24 17 25 21 29 47 29 23 22 23 31 39 57 61 57 56 55 63 51 48 55 49 36 35 46 40 35 35 37 43 37 16 28 31
47 23 24 21 24 36 33 24 9 10 32 16 17 15 27 26 28 24 32 30 26 20 36 45 49 59 56 56 57 62 42 30 32 31 41 36 36 34 36 38 40 28 19 21 30
33 16 21 16 25 26 26 7 8 24 26 39 33 35 30 34 37 32 40 33 23 34 26 39 32 52 43 63 49 59 50 31 49 27 37 44 42 42 39 46 44 10 21 12 21
28 19 11 15 25 19 15 8 8 19 27 36 39 32 28 25 37 33 27 27 12 17 20 22 33 46 57 56 56 54 54 51 45 41 29 31 32 51 38 25 28 19 26 34 31
28 20 15 18 21 16 9 20 23 28 29 34 31 1 29 43 20 13 24 17 17 9 22 15 32 42 50 53 65 56 45 49 38 44 36 38 32 8 22 15 8 20 20 45 39
21 10 7 13 16 16 10 27 43 50 43 28 29 29 27 31 34 27 22 14 32 12 17 29 28 49 45 46 56 47 49 50 34 33 28 26 19 6 3 6 13 25 39 50 48
17 7 11 7 9 11 18 41 53 22 34 34 15 23 17 33 39 36 19 21 27 30 21 22 10 28 50 48 58 58 50 48 31 45 35 27 22 22 9 12 10 27 50 50 53
20 24 6 7 7 16 35 33 41 33 38 36 25 31 31 32 21 19 19 19 4 6 6 16 11 19 28 29 37 55 52 47 40 23 38 31 20 21 19 13 10 26 48 49 54
18 13 13 25 13 24 32 32 37 35 29 40 38 32 27 29 36 14 17 10 11 8 4 12 12 31 22 10 24 31 55 57 50 35 30 37 18 19 21 17 15 44 48 53 53
10 15 26 14 24 23 31 32 36 34 33 45 18 36 33 34 34 29 16 27 12 8 6 4 18 38 40 34 41 56 58 64 59 48 39 34 34 27 28 25 7 41 47 49 52
18 19 25 42 33 26 24 30 35 33 37 29 28 40 32 34 37 36 38 34 15 13 9 15 10 31 27 23 40 57 58 60 55 56 50 35 40 21 36 45 19 32 44 45 46
19 22 9 25 29 23 21 31 42 42 21 46 29 35 34 34 46 62 56 49 40 38 29 23 10 10 7 21 37 40 47 49 50 50 49 28 13 36 37 31 19 12 41 39 41
Wind_Direction_850mb
335 332 332 331 331 328 327 326 327 327 321 314 303 293 286 286 282 274 268 261 262 249 239 242 249 225 228 231 230 235 252 249 250 258 269 277 286 293 293 309 282 294 298 293 289
332 330 327 327 326 325 325 322 320 320 321 320 321 321 309 293 284 276 266 260 248 237 234 228 224 222 224 232 231 228 243 237 244 256 269 276 276 269 287 293 283 272 296 277 287
332 328 325 323 321 320 320 320 318 316 316 316 316 317 318 321 309 274 249 248 241 236 233 235 243 232 231 237 231 229 238 248 258 264 263 268 281 288 286 282 298 299 293 287 294
341 335 330 323 319 316 314 313 314 315 315 311 311 309 310 306 257 129 16 325 241 233 232 240 245 248 236 233 236 241 239 244 256 261 265 270 278 281 289 292 291 290 272 275 291
348 343 338 334 329 323 317 313 310 308 308 308 305 306 312 257 243 277 292 306 291 234 229 233 233 235 241 235 242 237 244 249 252 256 258 265 270 278 280 282 288 285 280 280 286
347 342 338 334 330 327 323 317 311 305 301 299 300 303 293 267 266 265 260 256 250 244 241 234 235 234 248 243 241 250 248 252 258 259 262 267 274 275 277 282 283 283 275 273 271
341 339 337 334 330 328 325 320 315 308 299 292 289 289 272 256 262 248 262 258 253 249 248 247 248 232 244 251 254 256 256 260 256 258 263 268 264 263 269 271 278 283 281 275 276
345 339 336 333 330 326 321 317 315 310 299 291 282 277 265 283 264 262 262 260 257 254 251 248 254 272 268 254 260 251 257 260 254 254 257 260 265 265 266 273 269 273 278 274 272
348 344 342 340 339 333 326 315 302 298 304 296 276 226 271 293 257 258 259 255 248 249 247 245 241 253 262 250 249 248 247 248 251 245 262 258 265 266 259 258 258 261 257 261 275
346 342 339 339 339 336 326 324 322 283 282 265 251 236 257 264 259 195 250 286 242 246 250 239 230 235 237 234 226 222 238 243 259 256 258 256 253 264 254 256 258 255 266 264 266
344 340 336 335 337 339 343 358 354 304 229 260 282 222 290 273 265 250 259 267 257 251 241 225 217 222 220 220 243 240 240 246 251 252 254 254 259 258 272 273 272 263 246 261 265
346 341 337 334 338 337 341 323 325 310 297 280 267 264 260 269 271 263 258 257 248 251 233 230 224 227 232 227 234 242 255 259 266 268 269 279 281 278 268 273 279 281 287 286 288
342 337 333 331 336 354 324 328 327 314 293 279 259 257 258 248 247 252 241 241 242 249 239 228 239 231 235 234 237 235 237 247 258 270 273 281 276 270 270 272 267 268 265 266 261
342 338 338 338 345 320 330 329 323 326 289 286 225 233 231 243 266 247 243 232 235 240 245 246 243 241 233 234 229 243 234 244 250 255 260 259 273 255 262 264 262 268 267 260 262
344 343 351 0 0 341 325 326 322 325 276 78 48 90 204 203 208 260 205 217 243 253 229 242 246 237 237 241 228 245 244 250 248 251 260 254 259 268 268 270 268 262 256 251 246
345 346 360 0 326 331 325 316 314 252 243 15 6 352 339 322 306 261 196 226 252 241 242 255 254 249 248 242 249 242 241 250 257 258 250 244 248 264 265 272 274 273 301 302 281
347 347 3 360 333 327 333 329 280 273 322 343 311 322 313 304 283 275 273 218 220 254 249 248 244 255 251 252 231 241 229 232 231 233 245 247 249 263 268 276 275 278 303 278 58
349 345 341 328 330 334 340 312 293 342 314 352 349 333 317 317 293 284 276 265 253 236 237 276 253 223 237 238 234 226 231 223 222 223 244 244 246 254 249 249 254 249 267 145 121
347 349 312 326 332 339 330 286 328 297 347 338 334 353 340 329 314 308 285 258 268 1 293 313 279 273 217 241 238 228 227 236 244 232 255 254 231 234 243 251 250 216 230 138 136
338 312 277 316 328 331 296 287 301 348 331 329 342 327 310 329 308 256 308 343 278 237 228 283 289 285 279 210 242 242 218 226 221 236 235 232 253 185 179 205 275 174 195 129 135
330 249 290 324 298 308 297 316 327 333 324 318 333 314 335 327 325 331 287 279 329 268 309 295 263 272 286 261 211 225 233 219 235 230 238 252 230 140 52 120 220 173 146 137 140
302 287 184 344 241 294 306 327 314 312 317 310 343 301 290 286 300 296 31 11 333 334 311 318 310 260 265 263 214 230 225 220 219 207 236 265 263 112 105 168 225 85 121 139 141
307 307 294 300 342 331 310 327 325 348 331 324 318 313 318 321 314 325 320 166 278 302 7 348 233 260 252 262 249 229 225 230 237 220 215 233 237 152 151 207 162 134 130 138 139
307 313 356 337 321 311 323 316 322 327 326 325 313 312 320 312 303 224 286 309 238 310 194 294 254 253 248 244 334 271 233 229 222 213 221 223 142 161 146 142 183 122 139 144 152
287 345 6 311 327 317 302 303 320 341 337 329 306 331 324 320 312 312 259 284 250 253 162 237 271 270 270 274 296 289 240 227 215 204 225 231 209 160 132 120 109 125 143 148 149
330 345 335 299 320 311 325 315 329 328 325 317 320 310 308 311 314 314 308 306 313 267 218 204 276 291 265 286 286 290 289 222 212 193 220 233 212 170 104 77 117 143 149 157 148
328 319 276 301 307 328 309 324 313 319 312 304 335 318 311 308 308 304 290 286 277 266 268 283 286 267 257 232 283 284 250 232 208 188 212 211 163 90 85 84 58 44 146 150 154